Regional Weather Roundup
Issued by NWS

Home | Current Version | Previous Version | Graphics & Text | Print | Product List | Glossary On
Versions: 1 2 3 4 5 6 7 8 9 10 11 12 13 14 15 16 17 18 19 20 21 22 23 24 25 26 27 28 29 30 31 32 33 34 35 36 37 38 39 40 41 42 43 44 45 46 47 48 49 50
000
ASUS43 KOAX 161210
RWRNE

WEATHER ROUNDUP FOR NEBRASKA
NATIONAL WEATHER SERVICE OMAHA NE
700 AM CDT WED AUG 16 2017

NOTES: SATELLITE DATA IS BEING USED TO AUGMENT CLOUD COVER ABOVE
       12000 FEET.
       "FAIR" INDICATES FEW OR NO CLOUDS BELOW 12,000 FEET WITH NO
       SIGNIFICANT WEATHER AND/OR OBSTRUCTIONS TO VISIBILITY.


NEZ001>004-019>022-054>056-161300-
NEBRASKA PANHANDLE

CITY           SKY/WX    TMP DP  RH WIND       PRES   REMARKS
SCOTTSBLUFF    CLEAR     57  55  93 NW7       30.00R
6HR MIN TEMP:  57; 6HR MAX TEMP:  61;

ALLIANCE       CLOUDY    58  56  93 NW9       29.96S
6HR MIN TEMP:  58; 6HR MAX TEMP:  61;

CHADRON        CLOUDY    61  57  87 W3        29.97R
6HR MIN TEMP:  61; 6HR MAX TEMP:  63; 6HR PCP:  0.11;

GORDON         CLOUDY    61  59  92 N13       29.94R
6HR MIN TEMP:  60; 6HR MAX TEMP:  63;

KIMBALL        CLOUDY    56  56 100 NW7       30.04S
SIDNEY         CLOUDY    58  57  97 NW9       30.00R
6HR MIN TEMP:  58; 6HR MAX TEMP:  61; 6HR PCP: TRACE;

$$

NEZ057>060-069>072-079>082-161300-
SOUTHWEST NEBRASKA

CITY           SKY/WX    TMP DP  RH WIND       PRES   REMARKS
NORTH PLATTE   CLOUDY    60  59  96 NW9       29.88R
6HR MIN TEMP:  60; 6HR MAX TEMP:  63; 6HR PCP:  0.27;

IMPERIAL       CLOUDY    61  58  90 W10       29.93R
6HR MIN TEMP:  60; 6HR MAX TEMP:  62; 6HR PCP:  0.01;

LEXINGTON      CLOUDY    62  60  94 NW8       29.82R
MCCOOK         CLOUDY    61  61 100 NW12      29.85S
6HR MIN TEMP:  61; 6HR MAX TEMP:  66; 6HR PCP:  0.60;

OGALLALA       CLOUDY    61  60  94 NW5       29.93R
$$

NEZ005>010-023>029-035>040-094-161300-
NORTH CENTRAL NEBRASKA

CITY           SKY/WX    TMP DP  RH WIND       PRES   REMARKS
VALENTINE      CLOUDY    63  58  83 NW8       29.86R
6HR MIN TEMP:  63; 6HR MAX TEMP:  65; 6HR PCP:  0.28;

AINSWORTH      CLOUDY    62  62  99 N8        29.88R
BROKEN BOW     MOCLDY    62  62 100 NW6       29.83R
6HR MIN TEMP:  62; 6HR MAX TEMP:  65; 6HR PCP:  1.27;

O`NEILL        CLOUDY    63  63 100 N9        29.82R FOG
ORD            LGT RAIN  63  60  90 W7        29.82R
6HR MIN TEMP:  62; 6HR MAX TEMP:  65; 6HR PCP:  1.18;

THEDFORD       CLOUDY    60  59  96 W5        29.91R
$$

NEZ041-046>049-061>064-073>077-083>087-161300-
SOUTH CENTRAL NEBRASKA

CITY           SKY/WX    TMP DP  RH WIND       PRES   REMARKS
GRAND ISLAND   LGT RAIN  63  63 100 S8        29.80R
6HR MIN TEMP:  63; 6HR MAX TEMP:  65; 6HR PCP:  0.53;

AURORA         RAIN      63  63 100 SW9G16    29.78R
HASTINGS       LGT RAIN  63  62  97 SE8       29.81F
6HR MIN TEMP:  63; 6HR MAX TEMP:  67; 6HR PCP:  1.28;

HEBRON         CLOUDY    65  64  97 NW9       29.84R
HOLDREGE       CLOUDY    62  60  93 SE3       29.73F
KEARNEY        CLOUDY    62  61  96 E16       29.72F
YORK           LGT RAIN  64  64 100 SW12      29.82R
$$

NEZ011>018-030>034-042>045-161300-
NORTHEAST NEBRASKA

CITY           SKY/WX    TMP DP  RH WIND       PRES   REMARKS
NORFOLK        LGT RAIN  65  63  93 E13G22    29.74F
6HR MIN TEMP:  64; 6HR MAX TEMP:  67; 6HR PCP:  0.87;

ALBION         LGT RAIN  66  65  96 NE7       29.78R
BLAIR          TSTM      69  69  97 NE7       29.78S
COLUMBUS       LGT RAIN  66  64  94 E18G24    29.76R FOG
FREMONT        TSTM      67  67  97 N8        29.78F
TEKAMAH        CLOUDY    68  65  90 N12       29.78F
6HR MIN TEMP:  67; 6HR MAX TEMP:  70; 6HR PCP:  0.01;

WAYNE          CLOUDY    66  64  91 E15       29.79F THUNDER
$$

NEZ050>053-065>068-078-088>093-161300-
SOUTHEAST NEBRASKA

CITY           SKY/WX    TMP DP  RH WIND       PRES   REMARKS
LINCOLN        CLOUDY    73  71  93 SE6       29.77R
6HR MIN TEMP:  68; 6HR MAX TEMP:  73; 6HR PCP:  0.31;

OMAHA EPPLEY   CLOUDY    73  68  84 SE7       29.77S
6HR MIN TEMP:  70; 6HR MAX TEMP:  73;

BEATRICE       CLOUDY    74  72  91 SE7       29.77R
FALLS CITY     CLOUDY    73  70  90 SE9       29.78R
6HR MIN TEMP:  73; 6HR MAX TEMP:  76;

NEBRASKA CITY  CLOUDY    73  73 100 SE10      29.79R
PLATTSMOUTH    CLOUDY    72  69  90 SE8       29.77R
$$

NEZ044-045-051>053-067-161300-
OMAHA AREA

CITY           SKY/WX    TMP DP  RH WIND       PRES   REMARKS
OMAHA EPPLEY   CLOUDY    73  68  84 SE7       29.77S
6HR MIN TEMP:  70; 6HR MAX TEMP:  73;

BLAIR          TSTM      69  69  97 NE7       29.78S
FREMONT        TSTM      67  67  97 N8        29.78F
MILLARD        CLOUDY    73  70  92 SE5       29.76S
OFFUTT AFB     CLOUDY    73  69  87 SE12      29.76R
PLATTSMOUTH    CLOUDY    72  69  90 SE8       29.77R
WAHOO          CLOUDY    68  67  96 N5        29.77F
$$




USA.gov is the U.S. government's official web portal to all federal, state and local government web resources and services.